Back to catalog

DELTA 4 R/B

AliveHEO
NORAD 27692·ROCKET BODY·🇺🇸 United States

Launched Mar 11, 2003 from Cape Canaveral Space Force Station

Loading…

Next Passes (next 24 hours)

TLE

FreshSource: Space-Track

Epoch: Sep 14, 2026, 19:04 UTC

1 27692U 03008B   26257.79471090  .00039079  00000-0  15367-2 0  9998
2 27692  25.2525 279.1075 5640022 265.8698  31.3670  4.66868050105563

Track DELTA 4 R/B in real time with AllMySat

Download on the App Store